Location: Lynch Observatory
(39.9540°N, 75.1861°W)
Time: 23:48:00
(UTC-04:00)

UWE-3 - Pass Details

Date: 26 April 2024
Orbit: 569 x 652 km, 97.8° (Epoch: 27 May)

Event Time Altitude Azimuth Distance (km) Brightness Sun altitude
Rises 02:52:19 0° 23° (NNE) 2,878 ? -30.2°
Reaches altitude 10° 02:54:43 10° 35° (NE) 1,984 ? -29.9°
Enters shadow 02:58:03 29° 84° (E) 1,143 ? -29.6°
